QPF
0.01 0.01 0.02 0.02 0.01 0.01 0.02 0.02 0.01 0.02 0.02 0.02 0.01 0.01 0.01 0.01 0.01 0.01 0.01 0.01 0.01 0.01 0.01 0.01 0.00 0.00 0.00 0.01 0.01 0.01 0.01 0.01 0.01 0.01 0.01 0.01 0.01 0.01 0.01 0.00 0.00 0.00 0.00
0.01 0.02 0.02 0.03 0.02 0.02 0.01 0.01 0.01 0.01 0.02 0.02 0.01 0.02 0.01 0.01 0.01 0.01 0.01 0.02 0.02 0.02 0.02 0.01 0.01 0.00 0.00 0.01 0.01 0.01 0.01 0.01 0.01 0.01 0.01 0.01 0.01 0.01 0.01 0.00 0.00 0.00 0.00
0.02 0.01 0.01 0.01 0.01 0.02 0.03 0.01 0.01 0.02 0.02 0.01 0.01 0.01 0.01 0.02 0.02 0.02 0.02 0.02 0.03 0.03 0.02 0.02 0.01 0.01 0.01 0.01 0.01 0.01 0.00 0.01 0.01 0.00 0.00 0.00 0.00 0.01 0.00 0.01 0.01 0.01 0.00
0.02 0.02 0.01 0.01 0.01 0.02 0.02 0.01 0.01 0.01 0.02 0.01 0.01 0.01 0.01 0.02 0.02 0.02 0.01 0.01 0.02 0.04 0.04 0.02 0.02 0.02 0.01 0.01 0.01 0.01 0.00 0.00 0.01 0.00 0.00 0.00 0.00 0.01 0.01 0.01 0.01 0.01 0.00
0.01 0.01 0.01 0.01 0.01 0.02 0.01 0.01 0.01 0.01 0.02 0.02 0.02 0.01 0.02 0.02 0.02 0.02 0.01 0.01 0.01 0.03 0.03 0.01 0.02 0.02 0.02 0.01 0.01 0.00 0.00 0.00 0.00 0.00 0.00 0.00 0.00 0.01 0.01 0.01 0.01 0.01 0.01
0.00 0.01 0.01 0.02 0.02 0.03 0.02 0.01 0.01 0.01 0.01 0.02 0.01 0.01 0.02 0.03 0.03 0.03 0.01 0.02 0.02 0.04 0.02 0.01 0.01 0.01 0.01 0.01 0.01 0.01 0.00 0.00 0.00 0.00 0.00 0.00 0.00 0.01 0.01 0.01 0.01 0.01 0.01
0.01 0.01 0.02 0.03 0.04 0.03 0.02 0.01 0.01 0.01 0.01 0.02 0.02 0.01 0.02 0.02 0.02 0.03 0.02 0.02 0.02 0.02 0.01 0.00 0.01 0.01 0.01 0.01 0.01 0.01 0.00 0.00 0.00 0.00 0.00 0.00 0.00 0.02 0.02 0.01 0.01 0.01 0.01
0.01 0.01 0.02 0.05 0.04 0.03 0.02 0.02 0.02 0.02 0.02 0.03 0.03 0.02 0.02 0.02 0.02 0.03 0.02 0.02 0.02 0.01 0.00 0.01 0.00 0.00 0.01 0.01 0.01 0.01 0.00 0.00 0.00 0.00 0.00 0.00 0.01 0.01 0.01 0.01 0.00 0.01 0.01
0.02 0.01 0.02 0.03 0.03 0.03 0.02 0.02 0.02 0.02 0.02 0.02 0.02 0.02 0.02 0.02 0.02 0.02 0.02 0.01 0.02 0.01 0.00 0.00 0.01 0.00 0.01 0.01 0.01 0.01 0.00 0.00 0.00 0.00 0.00 0.00 0.01 0.01 0.01 0.00 0.00 0.00 0.00
0.03 0.02 0.02 0.03 0.04 0.04 0.03 0.02 0.02 0.01 0.01 0.01 0.01 0.01 0.01 0.01 0.02 0.02 0.02 0.01 0.02 0.01 0.00 0.00 0.00 0.00 0.01 0.01 0.01 0.00 0.00 0.00 0.00 0.00 0.00 0.00 0.01 0.01 0.01 0.01 0.00 0.00 0.00
0.04 0.03 0.02 0.03 0.04 0.04 0.03 0.02 0.02 0.02 0.01 0.01 0.01 0.00 0.01 0.01 0.02 0.02 0.01 0.01 0.01 0.01 0.00 0.00 0.00 0.00 0.00 0.00 0.00 0.00 0.00 0.00 0.00 0.00 0.00 0.00 0.01 0.01 0.01 0.01 0.01 0.01 0.00
0.03 0.03 0.02 0.03 0.03 0.04 0.04 0.04 0.03 0.02 0.02 0.02 0.02 0.01 0.01 0.01 0.02 0.01 0.01 0.01 0.01 0.01 0.01 0.01 0.01 0.00 0.00 0.00 0.01 0.01 0.01 0.00 0.00 0.00 0.00 0.00 0.01 0.02 0.02 0.01 0.01 0.01 0.01
0.04 0.04 0.03 0.03 0.03 0.04 0.05 0.06 0.05 0.04 0.03 0.03 0.02 0.01 0.01 0.01 0.02 0.01 0.01 0.01 0.01 0.01 0.01 0.01 0.01 0.00 0.00 0.00 0.00 0.01 0.01 0.02 0.01 0.00 0.00 0.01 0.01 0.02 0.02 0.02 0.01 0.02 0.02
0.05 0.04 0.05 0.05 0.07 0.06 0.06 0.06 0.06 0.05 0.03 0.03 0.04 0.03 0.02 0.01 0.01 0.01 0.01 0.01 0.01 0.01 0.01 0.01 0.01 0.01 0.00 0.00 0.00 0.00 0.01 0.01 0.01 0.01 0.00 0.01 0.01 0.01 0.02 0.02 0.02 0.02 0.02
0.06 0.05 0.05 0.06 0.07 0.08 0.08 0.07 0.06 0.06 0.04 0.04 0.04 0.03 0.03 0.03 0.02 0.01 0.01 0.02 0.01 0.01 0.01 0.01 0.01 0.01 0.01 0.00 0.00 0.00 0.01 0.01 0.01 0.01 0.01 0.01 0.01 0.01 0.02 0.02 0.02 0.02 0.02
0.07 0.08 0.06 0.06 0.07 0.08 0.08 0.09 0.09 0.08 0.07 0.06 0.05 0.05 0.05 0.04 0.05 0.04 0.02 0.02 0.02 0.01 0.01 0.01 0.01 0.01 0.01 0.01 0.00 0.00 0.00 0.00 0.01 0.01 0.01 0.01 0.01 0.02 0.02 0.02 0.02 0.02 0.02
0.05 0.08 0.07 0.07 0.09 0.09 0.08 0.10 0.11 0.10 0.09 0.08 0.08 0.06 0.06 0.05 0.05 0.06 0.05 0.04 0.03 0.02 0.01 0.01 0.01 0.01 0.01 0.01 0.01 0.01 0.01 0.01 0.01 0.02 0.01 0.01 0.01 0.01 0.01 0.02 0.02 0.02 0.02
0.05 0.06 0.08 0.08 0.09 0.10 0.09 0.09 0.10 0.11 0.11 0.08 0.08 0.08 0.07 0.05 0.04 0.05 0.06 0.05 0.04 0.03 0.02 0.01 0.02 0.02 0.02 0.01 0.01 0.01 0.01 0.01 0.02 0.01 0.01 0.01 0.01 0.01 0.01 0.01 0.01 0.02 0.02
0.06 0.05 0.07 0.08 0.08 0.10 0.10 0.10 0.08 0.10 0.12 0.11 0.09 0.08 0.08 0.06 0.03 0.03 0.04 0.04 0.04 0.04 0.03 0.03 0.02 0.02 0.02 0.02 0.01 0.01 0.02 0.02 0.03 0.03 0.02 0.02 0.01 0.00 0.01 0.01 0.01 0.01 0.01
0.08 0.07 0.07 0.07 0.08 0.10 0.13 0.12 0.10 0.10 0.11 0.13 0.12 0.10 0.08 0.09 0.06 0.03 0.02 0.03 0.03 0.02 0.02 0.01 0.01 0.01 0.01 0.01 0.02 0.02 0.02 0.03 0.04 0.05 0.05 0.04 0.02 0.01 0.00 0.00 0.00 0.00 0.01
0.10 0.09 0.08 0.07 0.07 0.08 0.10 0.11 0.11 0.09 0.08 0.10 0.14 0.13 0.11 0.09 0.08 0.05 0.03 0.03 0.04 0.03 0.02 0.01 0.01 0.01 0.01 0.01 0.01 0.01 0.01 0.02 0.03 0.03 0.03 0.02 0.01 0.01 0.00 0.00 0.00 0.00 0.00
0.08 0.09 0.09 0.08 0.06 0.06 0.06 0.10 0.12 0.11 0.10 0.09 0.10 0.14 0.13 0.11 0.09 0.07 0.05 0.04 0.03 0.03 0.02 0.01 0.01 0.01 0.01 0.01 0.01 0.01 0.01 0.01 0.01 0.01 0.01 0.01 0.01 0.01 0.00 0.00 0.00 0.00 0.00
0.08 0.09 0.09 0.09 0.07 0.06 0.05 0.08 0.12 0.15 0.14 0.11 0.10 0.11 0.15 0.13 0.09 0.07 0.06 0.05 0.04 0.03 0.02 0.01 0.01 0.01 0.01 0.01 0.01 0.02 0.02 0.02 0.01 0.01 0.01 0.01 0.00 0.00 0.00 0.00 0.00 0.00 0.00
0.09 0.09 0.10 0.10 0.09 0.08 0.07 0.05 0.06 0.09 0.15 0.16 0.12 0.09 0.11 0.17 0.17 0.12 0.10 0.08 0.06 0.05 0.03 0.02 0.01 0.01 0.01 0.02 0.02 0.02 0.03 0.03 0.03 0.02 0.01 0.01 0.01 0.00 0.00 0.00 0.00 0.00 0.00
0.12 0.10 0.11 0.11 0.10 0.09 0.08 0.07 0.05 0.05 0.08 0.14 0.17 0.14 0.10 0.10 0.15 0.19 0.16 0.12 0.10 0.08 0.05 0.03 0.02 0.01 0.01 0.02 0.03 0.03 0.03 0.03 0.03 0.03 0.02 0.01 0.01 0.01 0.00 0.00 0.00 0.01 0.01
0.11 0.11 0.11 0.12 0.11 0.10 0.10 0.08 0.07 0.05 0.05 0.06 0.10 0.15 0.14 0.10 0.09 0.11 0.16 0.17 0.14 0.13 0.11 0.09 0.06 0.04 0.03 0.03 0.03 0.03 0.03 0.03 0.03 0.04 0.03 0.02 0.02 0.02 0.02 0.02 0.02 0.03 0.03
MSLP
1003.53 1003.19 1003.22 1003.58 1004.16 1004.84 1005.51 1006.07 1006.50 1006.80 1007.05 1007.32 1007.68 1008.19 1008.84 1009.58 1010.35 1011.07 1011.65 1012.08 1012.35 1012.51 1012.62 1012.74 1012.92 1013.17 1013.46 1013.77 1014.03 1014.23 1014.34 1014.38 1014.38 1014.39 1014.43 1014.53 1014.69 1014.87 1015.06 1015.21 1015.32 1015.38 1015.41
1002.78 1002.54 1002.66 1003.09 1003.73 1004.46 1005.17 1005.77 1006.25 1006.61 1006.92 1007.25 1007.68 1008.24 1008.93 1009.71 1010.49 1011.21 1011.80 1012.22 1012.49 1012.65 1012.76 1012.88 1013.05 1013.29 1013.57 1013.86 1014.13 1014.33 1014.45 1014.52 1014.55 1014.59 1014.67 1014.80 1014.97 1015.17 1015.37 1015.54 1015.67 1015.75 1015.81
1001.95 1001.78 1001.97 1002.47 1003.18 1003.98 1004.77 1005.45 1006.01 1006.45 1006.83 1007.22 1007.69 1008.28 1008.97 1009.74 1010.51 1011.21 1011.78 1012.21 1012.49 1012.67 1012.80 1012.94 1013.12 1013.36 1013.63 1013.92 1014.19 1014.40 1014.55 1014.66 1014.74 1014.82 1014.94 1015.10 1015.29 1015.51 1015.71 1015.90 1016.04 1016.16 1016.25
1001.20 1001.07 1001.31 1001.87 1002.64 1003.51 1004.37 1005.14 1005.78 1006.31 1006.76 1007.20 1007.69 1008.27 1008.93 1009.66 1010.39 1011.06 1011.62 1012.05 1012.37 1012.59 1012.77 1012.94 1013.15 1013.40 1013.68 1013.96 1014.23 1014.47 1014.65 1014.80 1014.94 1015.08 1015.24 1015.43 1015.64 1015.86 1016.06 1016.25 1016.41 1016.54 1016.67
1000.70 1000.57 1000.82 1001.39 1002.20 1003.11 1004.03 1004.87 1005.59 1006.19 1006.69 1007.16 1007.65 1008.21 1008.83 1009.49 1010.17 1010.80 1011.36 1011.81 1012.17 1012.45 1012.69 1012.92 1013.17 1013.44 1013.73 1014.02 1014.30 1014.55 1014.77 1014.97 1015.16 1015.35 1015.55 1015.77 1015.99 1016.20 1016.40 1016.57 1016.73 1016.88 1017.03
1000.55 1000.39 1000.60 1001.15 1001.93 1002.85 1003.78 1004.66 1005.42 1006.06 1006.61 1007.10 1007.59 1008.11 1008.68 1009.29 1009.91 1010.51 1011.07 1011.55 1011.97 1012.32 1012.63 1012.93 1013.22 1013.51 1013.81 1014.10 1014.38 1014.65 1014.90 1015.14 1015.38 1015.62 1015.86 1016.09 1016.31 1016.51 1016.69 1016.85 1017.01 1017.16 1017.33
1000.79 1000.55 1000.69 1001.15 1001.86 1002.72 1003.62 1004.48 1005.25 1005.92 1006.49 1007.00 1007.49 1008.00 1008.53 1009.10 1009.68 1010.27 1010.82 1011.34 1011.81 1012.23 1012.62 1012.97 1013.30 1013.62 1013.92 1014.21 1014.49 1014.76 1015.03 1015.31 1015.59 1015.86 1016.13 1016.37 1016.59 1016.78 1016.94 1017.09 1017.23 1017.38 1017.56
1001.36 1001.02 1001.03 1001.38 1001.96 1002.69 1003.50 1004.30 1005.05 1005.72 1006.32 1006.86 1007.38 1007.89 1008.42 1008.97 1009.54 1010.11 1010.68 1011.22 1011.73 1012.21 1012.65 1013.05 1013.41 1013.74 1014.04 1014.32 1014.60 1014.87 1015.16 1015.45 1015.76 1016.06 1016.34 1016.60 1016.82 1017.00 1017.15 1017.28 1017.42 1017.57 1017.75
1002.10 1001.67 1001.55 1001.73 1002.14 1002.71 1003.38 1004.09 1004.78 1005.45 1006.07 1006.67 1007.23 1007.79 1008.35 1008.92 1009.49 1010.06 1010.63 1011.18 1011.72 1012.23 1012.70 1013.13 1013.51 1013.85 1014.15 1014.42 1014.69 1014.96 1015.25 1015.55 1015.87 1016.19 1016.50 1016.77 1016.99 1017.18 1017.33 1017.46 1017.60 1017.76 1017.95
1002.87 1002.35 1002.09 1002.10 1002.32 1002.71 1003.21 1003.80 1004.43 1005.09 1005.75 1006.40 1007.05 1007.69 1008.31 1008.91 1009.50 1010.08 1010.65 1011.20 1011.74 1012.25 1012.73 1013.17 1013.57 1013.91 1014.21 1014.48 1014.74 1015.01 1015.30 1015.61 1015.94 1016.27 1016.58 1016.87 1017.11 1017.31 1017.47 1017.62 1017.78 1017.97 1018.18
1003.52 1002.94 1002.57 1002.42 1002.45 1002.65 1002.98 1003.44 1004.00 1004.64 1005.33 1006.06 1006.80 1007.54 1008.24 1008.91 1009.53 1010.12 1010.68 1011.22 1011.74 1012.25 1012.72 1013.16 1013.56 1013.91 1014.22 1014.50 1014.77 1015.04 1015.32 1015.63 1015.96 1016.29 1016.61 1016.91 1017.17 1017.39 1017.59 1017.78 1017.98 1018.20 1018.44
1003.98 1003.38 1002.93 1002.64 1002.51 1002.53 1002.70 1003.03 1003.51 1004.12 1004.84 1005.64 1006.48 1007.31 1008.10 1008.84 1009.51 1010.12 1010.67 1011.19 1011.69 1012.18 1012.65 1013.09 1013.50 1013.87 1014.20 1014.50 1014.79 1015.06 1015.35 1015.65 1015.97 1016.29 1016.61 1016.91 1017.19 1017.44 1017.68 1017.91 1018.16 1018.43 1018.71
1004.23 1003.65 1003.16 1002.78 1002.52 1002.39 1002.41 1002.61 1003.00 1003.56 1004.29 1005.14 1006.05 1006.97 1007.85 1008.66 1009.38 1010.02 1010.58 1011.09 1011.58 1012.05 1012.52 1012.97 1013.41 1013.81 1014.19 1014.52 1014.83 1015.13 1015.42 1015.71 1016.01 1016.31 1016.61 1016.90 1017.18 1017.46 1017.73 1018.02 1018.32 1018.63 1018.96
1004.33 1003.80 1003.31 1002.88 1002.52 1002.27 1002.16 1002.24 1002.52 1003.03 1003.73 1004.58 1005.53 1006.52 1007.47 1008.34 1009.12 1009.79 1010.38 1010.91 1011.41 1011.89 1012.37 1012.85 1013.33 1013.79 1014.21 1014.60 1014.95 1015.27 1015.56 1015.84 1016.11 1016.38 1016.65 1016.91 1017.18 1017.47 1017.77 1018.08 1018.43 1018.79 1019.15
1004.35 1003.88 1003.43 1002.98 1002.57 1002.23 1002.01 1001.96 1002.13 1002.54 1003.17 1003.99 1004.94 1005.94 1006.94 1007.87 1008.71 1009.45 1010.09 1010.66 1011.19 1011.71 1012.24 1012.77 1013.30 1013.82 1014.31 1014.76 1015.16 1015.51 1015.81 1016.08 1016.31 1016.54 1016.76 1016.98 1017.22 1017.49 1017.79 1018.13 1018.50 1018.88 1019.27
1004.36 1003.97 1003.56 1003.12 1002.68 1002.27 1001.96 1001.80 1001.85 1002.13 1002.65 1003.39 1004.29 1005.28 1006.29 1007.27 1008.17 1008.98 1009.70 1010.35 1010.95 1011.54 1012.13 1012.73 1013.33 1013.92 1014.48 1014.99 1015.44 1015.83 1016.15 1016.41 1016.62 1016.80 1016.96 1017.14 1017.33 1017.57 1017.85 1018.18 1018.54 1018.93 1019.32
1004.43 1004.09 1003.72 1003.30 1002.84 1002.40 1002.01 1001.74 1001.65 1001.79 1002.18 1002.80 1003.60 1004.54 1005.55 1006.56 1007.52 1008.42 1009.24 1009.99 1010.69 1011.37 1012.05 1012.72 1013.40 1014.06 1014.69 1015.26 1015.77 1016.19 1016.53 1016.80 1016.99 1017.14 1017.26 1017.39 1017.54 1017.72 1017.96 1018.26 1018.60 1018.96 1019.33
1004.56 1004.24 1003.89 1003.48 1003.03 1002.55 1002.10 1001.74 1001.53 1001.52 1001.75 1002.23 1002.92 1003.77 1004.74 1005.76 1006.79 1007.77 1008.70 1009.57 1010.39 1011.17 1011.94 1012.70 1013.44 1014.17 1014.86 1015.49 1016.06 1016.53 1016.91 1017.20 1017.40 1017.54 1017.64 1017.72 1017.83 1017.96 1018.15 1018.40 1018.69 1019.02 1019.35
1004.74 1004.40 1004.04 1003.63 1003.17 1002.67 1002.18 1001.74 1001.43 1001.28 1001.36 1001.69 1002.24 1003.00 1003.91 1004.92 1005.98 1007.05 1008.08 1009.06 1010.00 1010.89 1011.75 1012.58 1013.39 1014.18 1014.92 1015.61 1016.23 1016.77 1017.20 1017.54 1017.77 1017.93 1018.03 1018.11 1018.18 1018.28 1018.41 1018.60 1018.84 1019.11 1019.38
1004.96 1004.55 1004.14 1003.70 1003.22 1002.72 1002.20 1001.71 1001.31 1001.06 1001.00 1001.18 1001.60 1002.24 1003.08 1004.06 1005.14 1006.26 1007.38 1008.46 1009.50 1010.48 1011.42 1012.32 1013.19 1014.02 1014.82 1015.56 1016.24 1016.84 1017.34 1017.75 1018.05 1018.26 1018.39 1018.48 1018.55 1018.62 1018.72 1018.86 1019.03 1019.24 1019.45
1005.18 1004.66 1004.17 1003.68 1003.18 1002.66 1002.13 1001.62 1001.17 1000.84 1000.67 1000.73 1001.02 1001.55 1002.30 1003.23 1004.29 1005.43 1006.60 1007.75 1008.86 1009.92 1010.93 1011.88 1012.79 1013.67 1014.51 1015.31 1016.05 1016.72 1017.30 1017.79 1018.17 1018.46 1018.65 1018.78 1018.87 1018.94 1019.02 1019.12 1019.24 1019.39 1019.55
1005.39 1004.74 1004.14 1003.58 1003.05 1002.51 1001.98 1001.47 1001.00 1000.62 1000.39 1000.34 1000.52 1000.94 1001.59 1002.45 1003.47 1004.59 1005.77 1006.96 1008.12 1009.22 1010.28 1011.27 1012.23 1013.14 1014.02 1014.87 1015.67 1016.41 1017.08 1017.65 1018.13 1018.49 1018.77 1018.96 1019.09 1019.18 1019.26 1019.34 1019.43 1019.54 1019.65
1005.60 1004.81 1004.10 1003.46 1002.87 1002.32 1001.80 1001.29 1000.83 1000.44 1000.16 1000.05 1000.14 1000.46 1001.01 1001.78 1002.73 1003.81 1004.96 1006.15 1007.32 1008.45 1009.53 1010.56 1011.54 1012.49 1013.42 1014.31 1015.17 1015.97 1016.71 1017.36 1017.92 1018.37 1018.72 1018.98 1019.16 1019.30 1019.40 1019.48 1019.57 1019.64 1019.72
1005.80 1004.90 1004.07 1003.34 1002.70 1002.13 1001.61 1001.13 1000.69 1000.30 1000.02 999.87 999.90 1000.14 1000.59 1001.27 1002.13 1003.13 1004.24 1005.39 1006.55 1007.68 1008.78 1009.83 1010.85 1011.83 1012.79 1013.72 1014.62 1015.47 1016.26 1016.98 1017.59 1018.11 1018.52 1018.84 1019.09 1019.27 1019.41 1019.52 1019.62 1019.69 1019.76
1006.02 1005.02 1004.10 1003.29 1002.59 1001.99 1001.46 1001.00 1000.58 1000.22 999.94 999.78 999.78 999.96 1000.34 1000.93 1001.71 1002.64 1003.68 1004.78 1005.91 1007.03 1008.13 1009.20 1010.24 1011.25 1012.24 1013.20 1014.13 1015.01 1015.82 1016.56 1017.21 1017.76 1018.22 1018.59 1018.89 1019.12 1019.31 1019.47 1019.60 1019.70 1019.78
1006.22 1005.17 1004.18 1003.31 1002.55 1001.91 1001.37 1000.90 1000.50 1000.16 999.91 999.76 999.75 999.91 1000.25 1000.78 1001.49 1002.35 1003.32 1004.37 1005.45 1006.55 1007.65 1008.73 1009.79 1010.82 1011.83 1012.81 1013.75 1014.63 1015.45 1016.18 1016.83 1017.39 1017.86 1018.27 1018.61 1018.90 1019.15 1019.36 1019.54 1019.68 1019.78
Thickness
5750 5752 5751 5749 5748 5747 5747 5746 5745 5745 5744 5743 5743 5742 5741 5740 5738 5737 5736 5735 5733 5733 5731 5730 5729 5728 5727 5726 5725 5723 5722 5721 5720 5718 5717 5716 5715 5714 5712 5711 5710 5708 5707
5754 5752 5750 5748 5746 5745 5744 5744 5743 5742 5741 5741 5740 5739 5738 5737 5735 5734 5733 5732 5731 5729 5728 5727 5726 5725 5724 5723 5721 5720 5718 5717 5716 5715 5714 5713 5711 5710 5709 5708 5707 5705 5704
5752 5750 5748 5746 5744 5743 5742 5741 5740 5739 5739 5738 5737 5736 5735 5734 5732 5731 5730 5729 5728 5726 5725 5724 5723 5722 5721 5719 5718 5717 5715 5714 5713 5712 5710 5709 5708 5707 5706 5704 5703 5702 5701
5749 5747 5746 5744 5742 5741 5739 5738 5738 5737 5736 5735 5734 5733 5732 5731 5729 5728 5727 5725 5724 5723 5722 5720 5719 5718 5717 5716 5715 5713 5712 5710 5709 5708 5707 5706 5705 5704 5702 5701 5700 5699 5697
5744 5743 5742 5741 5740 5738 5737 5736 5735 5734 5733 5731 5730 5729 5728 5727 5726 5725 5724 5722 5721 5720 5718 5717 5716 5715 5714 5713 5711 5710 5708 5706 5705 5704 5703 5702 5701 5700 5699 5697 5696 5695 5694
5739 5738 5738 5737 5736 5735 5734 5732 5731 5730 5729 5728 5727 5726 5725 5724 5723 5721 5720 5719 5718 5716 5715 5714 5713 5712 5710 5709 5708 5706 5704 5703 5701 5700 5699 5698 5697 5696 5695 5693 5692 5691 5689
5734 5734 5733 5733 5732 5731 5730 5729 5728 5726 5725 5724 5723 5722 5721 5720 5719 5718 5717 5715 5714 5713 5712 5711 5709 5708 5707 5706 5704 5702 5701 5699 5698 5696 5695 5694 5693 5692 5691 5689 5688 5687 5685
5730 5729 5728 5728 5727 5727 5726 5725 5724 5722 5721 5720 5719 5718 5717 5716 5715 5714 5713 5712 5711 5709 5708 5707 5706 5704 5703 5702 5701 5699 5697 5696 5694 5692 5691 5690 5689 5688 5686 5685 5683 5682 5681
5724 5724 5723 5723 5722 5721 5722 5721 5720 5718 5717 5716 5715 5714 5713 5712 5711 5710 5709 5708 5706 5705 5704 5703 5702 5700 5699 5698 5697 5695 5693 5692 5690 5688 5687 5686 5685 5683 5682 5680 5679 5677 5676
5716 5717 5717 5717 5717 5716 5716 5716 5715 5714 5712 5711 5710 5710 5709 5707 5706 5705 5704 5703 5702 5701 5700 5699 5697 5696 5695 5694 5692 5691 5689 5687 5686 5684 5683 5682 5680 5679 5677 5675 5674 5672 5670
5707 5709 5710 5711 5712 5711 5710 5710 5710 5709 5708 5706 5705 5704 5703 5702 5701 5700 5699 5698 5697 5696 5695 5694 5693 5692 5690 5689 5688 5686 5684 5682 5681 5679 5678 5677 5675 5674 5672 5670 5669 5667 5665
5699 5701 5704 5705 5706 5706 5705 5704 5704 5703 5702 5701 5700 5699 5698 5697 5696 5695 5694 5693 5691 5690 5690 5689 5688 5687 5686 5684 5683 5681 5679 5677 5675 5674 5673 5671 5670 5669 5667 5665 5663 5662 5660
5693 5695 5696 5698 5700 5700 5700 5699 5698 5698 5697 5696 5695 5695 5694 5692 5691 5689 5688 5687 5686 5685 5684 5683 5682 5681 5680 5679 5677 5675 5674 5672 5670 5668 5667 5666 5664 5663 5662 5660 5658 5656 5654
5685 5687 5689 5691 5693 5694 5694 5693 5692 5692 5691 5691 5690 5689 5689 5687 5686 5684 5683 5682 5681 5679 5678 5677 5676 5675 5674 5673 5672 5670 5668 5666 5664 5662 5661 5660 5658 5657 5656 5654 5653 5651 5649
5677 5679 5682 5685 5686 5687 5687 5686 5686 5686 5686 5686 5685 5684 5684 5682 5680 5679 5677 5676 5675 5673 5672 5671 5670 5669 5668 5667 5665 5663 5661 5660 5658 5656 5655 5653 5652 5651 5649 5648 5646 5645 5643
5669 5672 5674 5677 5679 5680 5680 5680 5680 5680 5679 5680 5680 5679 5678 5677 5675 5673 5671 5670 5669 5668 5666 5665 5663 5662 5661 5660 5658 5657 5655 5653 5652 5650 5648 5647 5645 5644 5643 5641 5639 5638 5636
5662 5665 5666 5669 5670 5671 5673 5673 5673 5673 5673 5673 5673 5673 5672 5672 5670 5668 5666 5664 5663 5661 5660 5658 5656 5655 5653 5652 5650 5649 5648 5646 5644 5643 5641 5639 5638 5636 5635 5634 5632 5630 5629
5654 5656 5659 5661 5662 5662 5664 5665 5665 5665 5666 5665 5666 5665 5664 5665 5664 5662 5660 5658 5656 5655 5653 5651 5649 5647 5645 5643 5642 5640 5639 5638 5637 5635 5633 5632 5630 5629 5627 5626 5624 5623 5621
5646 5648 5650 5652 5653 5654 5655 5656 5657 5657 5657 5657 5657 5657 5656 5656 5656 5655 5653 5651 5649 5647 5645 5643 5640 5639 5636 5634 5633 5631 5630 5629 5628 5627 5625 5624 5622 5620 5619 5617 5616 5614 5613
5636 5639 5641 5643 5644 5645 5646 5647 5647 5647 5648 5648 5648 5648 5648 5648 5647 5646 5644 5643 5641 5639 5636 5634 5632 5629 5627 5625 5624 5621 5620 5619 5619 5618 5617 5615 5614 5612 5610 5608 5607 5605 5604
5624 5628 5631 5633 5635 5636 5637 5638 5639 5638 5639 5640 5640 5640 5640 5638 5637 5637 5635 5634 5632 5630 5628 5626 5623 5619 5616 5615 5612 5609 5609 5609 5609 5608 5608 5606 5605 5603 5601 5599 5598 5596 5595
5615 5618 5622 5624 5627 5628 5630 5631 5631 5631 5631 5631 5631 5632 5631 5630 5628 5628 5627 5625 5623 5621 5619 5617 5614 5610 5607 5605 5603 5599 5597 5598 5599 5600 5598 5597 5596 5595 5593 5591 5589 5587 5585
5605 5609 5612 5614 5617 5619 5621 5621 5621 5621 5621 5621 5622 5622 5623 5621 5619 5618 5617 5616 5614 5612 5610 5608 5606 5603 5599 5596 5594 5591 5588 5587 5586 5589 5589 5588 5587 5585 5584 5582 5580 5578 5576
5595 5598 5601 5604 5607 5609 5611 5612 5613 5614 5614 5614 5614 5613 5613 5612 5611 5609 5607 5605 5604 5602 5600 5599 5597 5594 5591 5587 5585 5583 5581 5579 5575 5576 5578 5578 5577 5576 5574 5573 5571 5569 5567
5584 5587 5590 5593 5596 5599 5601 5603 5603 5604 5605 5605 5604 5603 5603 5602 5601 5599 5598 5596 5594 5592 5591 5589 5586 5584 5582 5579 5576 5573 5571 5569 5567 5566 5566 5567 5566 5566 5565 5563 5562 5559 5557
5574 5576 5579 5583 5586 5588 5591 5592 5594 5594 5595 5594 5594 5592 5592 5591 5591 5589 5588 5587 5584 5582 5580 5578 5577 5574 5572 5570 5567 5565 5563 5561 5559 5557 5555 5555 5555 5556 5555 5555 5552 5550 5548